{"data":{"norad_id":66031,"epoch":"2026-09-20T07:20:30.228288Z","epoch_age_seconds":119808,"freshness":"FRESH","line1":"1 66031U 25232AC  26263.30590542  .00013758  00000+0  41746-3 0  9995","line2":"2 66031  53.1588 276.2722 0001540  80.6620 279.4557 15.34408370 53280","mean_motion":15.3440837,"eccentricity":0.000154,"inclination_deg":53.1588,"raan_deg":276.2722,"arg_perigee_deg":80.662,"mean_anomaly_deg":279.4557,"bstar":0.00041746,"rev_number":5328,"period_min":93.847246153904,"perigee_km":461.6248773504,"apogee_km":463.73184848218,"semimajor_km":6840.8153629163,"source":"CELESTRAK","updated_at":"2026-09-21T09:00:35.773617Z"}}